QPF
0.01 0.02 0.03 0.05 0.06 0.06 0.05 0.04 0.03 0.03 0.03 0.02 0.02 0.02 0.02 0.02 0.02 0.01 0.02 0.03 0.05 0.05 0.04 0.05 0.04 0.05 0.06 0.05 0.05 0.04 0.03 0.03 0.03 0.03 0.03 0.02 0.02 0.02 0.01 0.01 0.01 0.02 0.03
0.02 0.02 0.03 0.05 0.06 0.06 0.05 0.05 0.05 0.05 0.03 0.02 0.02 0.02 0.01 0.01 0.02 0.02 0.02 0.03 0.04 0.05 0.04 0.03 0.03 0.04 0.04 0.05 0.04 0.03 0.02 0.02 0.01 0.01 0.01 0.01 0.01 0.02 0.01 0.01 0.02 0.03 0.02
0.02 0.02 0.03 0.05 0.05 0.06 0.06 0.04 0.04 0.04 0.04 0.03 0.02 0.02 0.02 0.02 0.02 0.02 0.03 0.03 0.03 0.04 0.03 0.03 0.03 0.03 0.03 0.04 0.03 0.02 0.02 0.01 0.01 0.00 0.00 0.01 0.03 0.04 0.03 0.03 0.03 0.03 0.03
0.02 0.03 0.03 0.04 0.05 0.06 0.05 0.04 0.04 0.04 0.05 0.04 0.02 0.02 0.03 0.03 0.02 0.02 0.02 0.03 0.03 0.03 0.02 0.03 0.03 0.03 0.02 0.02 0.03 0.02 0.01 0.01 0.01 0.00 0.00 0.01 0.03 0.05 0.05 0.04 0.05 0.05 0.04
0.02 0.03 0.03 0.04 0.05 0.06 0.06 0.06 0.07 0.06 0.05 0.04 0.03 0.02 0.03 0.04 0.03 0.02 0.02 0.02 0.01 0.02 0.02 0.02 0.02 0.02 0.02 0.02 0.03 0.03 0.01 0.01 0.00 0.00 0.00 0.01 0.02 0.05 0.04 0.04 0.04 0.04 0.03
0.02 0.03 0.04 0.04 0.05 0.06 0.06 0.08 0.08 0.07 0.07 0.05 0.03 0.03 0.03 0.03 0.02 0.02 0.02 0.02 0.01 0.02 0.03 0.02 0.02 0.02 0.02 0.02 0.02 0.03 0.02 0.01 0.00 0.00 0.00 0.01 0.02 0.06 0.05 0.04 0.04 0.04 0.03
0.02 0.03 0.05 0.06 0.05 0.04 0.05 0.06 0.08 0.07 0.07 0.07 0.06 0.04 0.03 0.03 0.02 0.03 0.02 0.02 0.02 0.02 0.03 0.02 0.02 0.02 0.02 0.02 0.02 0.02 0.02 0.01 0.00 0.00 0.00 0.01 0.02 0.06 0.07 0.06 0.05 0.04 0.04
0.03 0.03 0.05 0.06 0.06 0.05 0.04 0.05 0.08 0.08 0.07 0.07 0.08 0.06 0.05 0.03 0.03 0.04 0.04 0.03 0.02 0.02 0.02 0.02 0.03 0.02 0.02 0.02 0.02 0.02 0.02 0.01 0.00 0.00 0.00 0.01 0.02 0.04 0.07 0.07 0.06 0.04 0.04
0.03 0.03 0.04 0.06 0.06 0.05 0.04 0.04 0.06 0.08 0.07 0.06 0.06 0.07 0.06 0.04 0.04 0.05 0.05 0.05 0.04 0.03 0.03 0.03 0.03 0.02 0.02 0.01 0.01 0.01 0.02 0.01 0.00 0.00 0.00 0.01 0.02 0.04 0.07 0.07 0.08 0.07 0.06
0.03 0.03 0.03 0.04 0.05 0.05 0.05 0.03 0.05 0.08 0.08 0.07 0.06 0.05 0.06 0.06 0.06 0.05 0.05 0.05 0.05 0.04 0.04 0.03 0.02 0.02 0.02 0.02 0.01 0.01 0.02 0.02 0.01 0.00 0.00 0.01 0.03 0.05 0.06 0.08 0.10 0.10 0.08
0.03 0.03 0.02 0.03 0.04 0.04 0.05 0.05 0.05 0.09 0.10 0.09 0.08 0.06 0.06 0.06 0.06 0.06 0.07 0.08 0.07 0.05 0.05 0.04 0.03 0.02 0.02 0.02 0.02 0.01 0.02 0.02 0.01 0.00 0.00 0.02 0.03 0.05 0.05 0.05 0.07 0.07 0.07
0.02 0.03 0.03 0.03 0.02 0.02 0.03 0.04 0.05 0.09 0.11 0.09 0.06 0.06 0.06 0.06 0.08 0.09 0.11 0.14 0.15 0.12 0.08 0.06 0.04 0.03 0.03 0.02 0.02 0.02 0.02 0.02 0.01 0.01 0.01 0.02 0.03 0.04 0.03 0.02 0.03 0.04 0.04
0.03 0.03 0.03 0.02 0.01 0.01 0.02 0.03 0.05 0.08 0.12 0.10 0.07 0.05 0.05 0.04 0.06 0.08 0.08 0.08 0.10 0.11 0.12 0.09 0.05 0.03 0.03 0.02 0.02 0.01 0.02 0.02 0.02 0.01 0.01 0.02 0.03 0.03 0.03 0.01 0.01 0.02 0.03
0.02 0.03 0.03 0.02 0.02 0.01 0.01 0.02 0.05 0.08 0.10 0.09 0.06 0.05 0.04 0.03 0.04 0.04 0.05 0.05 0.05 0.06 0.08 0.08 0.05 0.04 0.03 0.02 0.02 0.01 0.01 0.02 0.02 0.01 0.01 0.01 0.02 0.02 0.02 0.02 0.01 0.01 0.02
0.02 0.02 0.03 0.02 0.01 0.01 0.01 0.02 0.05 0.06 0.08 0.07 0.05 0.05 0.04 0.04 0.03 0.04 0.03 0.04 0.04 0.04 0.06 0.06 0.06 0.05 0.05 0.04 0.03 0.02 0.01 0.02 0.03 0.03 0.01 0.01 0.01 0.02 0.02 0.02 0.02 0.02 0.02
0.01 0.02 0.02 0.03 0.02 0.02 0.02 0.02 0.04 0.05 0.06 0.07 0.04 0.04 0.04 0.04 0.04 0.04 0.05 0.05 0.04 0.03 0.04 0.05 0.05 0.06 0.06 0.06 0.05 0.03 0.03 0.03 0.03 0.04 0.02 0.01 0.01 0.02 0.03 0.03 0.03 0.02 0.02
0.01 0.01 0.01 0.02 0.02 0.02 0.02 0.03 0.03 0.04 0.06 0.07 0.05 0.04 0.04 0.04 0.04 0.04 0.04 0.06 0.05 0.05 0.05 0.04 0.04 0.06 0.07 0.07 0.07 0.06 0.05 0.04 0.04 0.04 0.04 0.03 0.02 0.02 0.03 0.04 0.04 0.03 0.03
0.01 0.01 0.01 0.02 0.01 0.01 0.01 0.01 0.02 0.04 0.05 0.07 0.08 0.06 0.05 0.04 0.04 0.04 0.04 0.04 0.05 0.06 0.06 0.05 0.04 0.03 0.04 0.05 0.05 0.06 0.06 0.05 0.05 0.05 0.05 0.04 0.03 0.01 0.02 0.03 0.03 0.03 0.03
0.01 0.01 0.02 0.02 0.02 0.01 0.01 0.01 0.01 0.02 0.04 0.07 0.08 0.08 0.06 0.05 0.04 0.03 0.04 0.05 0.05 0.07 0.07 0.05 0.05 0.05 0.04 0.04 0.04 0.05 0.06 0.05 0.05 0.06 0.05 0.05 0.03 0.02 0.01 0.02 0.02 0.02 0.03
0.01 0.01 0.02 0.02 0.01 0.01 0.02 0.01 0.02 0.02 0.03 0.06 0.08 0.09 0.08 0.06 0.05 0.04 0.04 0.05 0.06 0.08 0.09 0.07 0.05 0.06 0.05 0.05 0.05 0.05 0.05 0.05 0.05 0.05 0.07 0.06 0.05 0.02 0.01 0.01 0.01 0.01 0.02
0.02 0.02 0.02 0.02 0.02 0.02 0.02 0.02 0.02 0.02 0.03 0.06 0.07 0.07 0.08 0.07 0.06 0.05 0.04 0.05 0.08 0.10 0.09 0.08 0.05 0.05 0.06 0.06 0.06 0.05 0.05 0.04 0.04 0.04 0.05 0.07 0.07 0.04 0.02 0.02 0.01 0.01 0.01
0.03 0.02 0.02 0.02 0.02 0.02 0.01 0.01 0.01 0.02 0.03 0.05 0.06 0.06 0.07 0.08 0.06 0.05 0.04 0.06 0.08 0.13 0.11 0.09 0.08 0.06 0.06 0.06 0.06 0.07 0.06 0.06 0.04 0.04 0.04 0.05 0.07 0.06 0.03 0.02 0.01 0.01 0.01
0.03 0.03 0.02 0.02 0.02 0.02 0.02 0.02 0.02 0.03 0.04 0.05 0.06 0.06 0.06 0.07 0.07 0.05 0.05 0.06 0.09 0.12 0.13 0.10 0.08 0.07 0.07 0.06 0.06 0.07 0.07 0.06 0.05 0.04 0.03 0.04 0.05 0.06 0.04 0.02 0.01 0.01 0.01
0.03 0.03 0.03 0.03 0.03 0.03 0.03 0.03 0.02 0.03 0.05 0.06 0.06 0.05 0.06 0.06 0.07 0.06 0.07 0.08 0.10 0.11 0.12 0.11 0.08 0.07 0.08 0.08 0.08 0.08 0.07 0.06 0.05 0.04 0.03 0.03 0.04 0.05 0.05 0.04 0.03 0.02 0.01
0.03 0.03 0.03 0.05 0.05 0.05 0.06 0.04 0.04 0.05 0.09 0.09 0.07 0.05 0.06 0.07 0.07 0.07 0.06 0.07 0.09 0.12 0.12 0.11 0.10 0.08 0.08 0.09 0.08 0.08 0.09 0.07 0.06 0.06 0.06 0.05 0.05 0.05 0.05 0.04 0.03 0.02 0.02
0.04 0.03 0.03 0.05 0.07 0.08 0.07 0.06 0.05 0.06 0.11 0.09 0.07 0.05 0.06 0.07 0.08 0.10 0.07 0.07 0.07 0.10 0.14 0.12 0.11 0.09 0.07 0.08 0.07 0.07 0.08 0.07 0.07 0.07 0.08 0.09 0.09 0.07 0.05 0.05 0.04 0.03 0.01
MSLP
1017.00 1016.64 1016.27 1015.93 1015.67 1015.49 1015.40 1015.39 1015.43 1015.50 1015.57 1015.64 1015.70 1015.76 1015.82 1015.90 1015.98 1016.09 1016.20 1016.32 1016.43 1016.54 1016.63 1016.72 1016.81 1016.90 1017.00 1017.10 1017.21 1017.31 1017.41 1017.49 1017.58 1017.65 1017.73 1017.82 1017.90 1017.99 1018.06 1018.10 1018.11 1018.08 1018.02
1017.02 1016.71 1016.37 1016.05 1015.78 1015.59 1015.48 1015.43 1015.45 1015.50 1015.58 1015.66 1015.76 1015.86 1015.98 1016.12 1016.27 1016.42 1016.57 1016.71 1016.83 1016.93 1017.02 1017.09 1017.16 1017.23 1017.30 1017.38 1017.46 1017.54 1017.62 1017.70 1017.79 1017.88 1017.99 1018.10 1018.22 1018.32 1018.41 1018.47 1018.48 1018.46 1018.41
1017.01 1016.77 1016.48 1016.20 1015.95 1015.76 1015.64 1015.58 1015.58 1015.61 1015.68 1015.77 1015.88 1016.02 1016.19 1016.37 1016.57 1016.76 1016.94 1017.09 1017.22 1017.31 1017.38 1017.43 1017.47 1017.52 1017.56 1017.61 1017.67 1017.73 1017.80 1017.88 1017.97 1018.08 1018.21 1018.34 1018.49 1018.61 1018.72 1018.78 1018.81 1018.80 1018.77
1016.98 1016.82 1016.61 1016.38 1016.18 1016.02 1015.91 1015.85 1015.83 1015.84 1015.89 1015.97 1016.08 1016.23 1016.41 1016.62 1016.84 1017.06 1017.25 1017.41 1017.54 1017.62 1017.68 1017.71 1017.74 1017.75 1017.78 1017.81 1017.85 1017.90 1017.96 1018.04 1018.14 1018.27 1018.41 1018.56 1018.72 1018.86 1018.97 1019.05 1019.09 1019.10 1019.08
1016.98 1016.90 1016.76 1016.62 1016.48 1016.37 1016.28 1016.23 1016.20 1016.18 1016.20 1016.25 1016.34 1016.46 1016.63 1016.84 1017.06 1017.28 1017.48 1017.64 1017.77 1017.85 1017.90 1017.93 1017.94 1017.95 1017.97 1017.99 1018.03 1018.08 1018.14 1018.22 1018.33 1018.46 1018.61 1018.77 1018.93 1019.07 1019.19 1019.27 1019.33 1019.35 1019.36
1017.03 1017.02 1016.96 1016.89 1016.82 1016.77 1016.72 1016.68 1016.63 1016.60 1016.58 1016.58 1016.62 1016.71 1016.85 1017.03 1017.23 1017.44 1017.63 1017.80 1017.92 1018.01 1018.06 1018.10 1018.12 1018.14 1018.16 1018.19 1018.23 1018.29 1018.36 1018.45 1018.56 1018.69 1018.84 1018.99 1019.14 1019.28 1019.39 1019.47 1019.53 1019.57 1019.60
1017.16 1017.20 1017.20 1017.20 1017.19 1017.18 1017.17 1017.14 1017.09 1017.03 1016.98 1016.93 1016.93 1016.97 1017.06 1017.20 1017.37 1017.56 1017.74 1017.90 1018.03 1018.13 1018.20 1018.25 1018.30 1018.34 1018.38 1018.42 1018.48 1018.55 1018.63 1018.73 1018.83 1018.96 1019.10 1019.24 1019.37 1019.49 1019.59 1019.67 1019.73 1019.78 1019.82
1017.37 1017.43 1017.47 1017.51 1017.54 1017.58 1017.59 1017.57 1017.52 1017.45 1017.36 1017.28 1017.24 1017.24 1017.29 1017.39 1017.53 1017.69 1017.85 1018.01 1018.14 1018.25 1018.34 1018.42 1018.49 1018.56 1018.63 1018.70 1018.78 1018.86 1018.95 1019.04 1019.15 1019.26 1019.38 1019.50 1019.62 1019.72 1019.80 1019.88 1019.94 1019.99 1020.04
1017.62 1017.68 1017.74 1017.80 1017.86 1017.92 1017.94 1017.94 1017.89 1017.81 1017.71 1017.62 1017.55 1017.53 1017.55 1017.62 1017.73 1017.86 1018.01 1018.15 1018.29 1018.41 1018.52 1018.62 1018.72 1018.82 1018.91 1019.01 1019.10 1019.19 1019.28 1019.37 1019.47 1019.56 1019.66 1019.76 1019.85 1019.94 1020.01 1020.08 1020.14 1020.21 1020.27
1017.85 1017.92 1017.99 1018.06 1018.13 1018.19 1018.22 1018.22 1018.18 1018.11 1018.02 1017.93 1017.87 1017.84 1017.85 1017.90 1017.99 1018.10 1018.22 1018.35 1018.48 1018.60 1018.73 1018.85 1018.97 1019.09 1019.20 1019.31 1019.42 1019.51 1019.60 1019.67 1019.75 1019.83 1019.90 1019.98 1020.06 1020.13 1020.20 1020.27 1020.34 1020.41 1020.48
1018.03 1018.12 1018.19 1018.27 1018.34 1018.40 1018.43 1018.43 1018.40 1018.35 1018.28 1018.22 1018.18 1018.16 1018.18 1018.23 1018.30 1018.39 1018.49 1018.60 1018.71 1018.83 1018.95 1019.08 1019.22 1019.35 1019.48 1019.60 1019.70 1019.79 1019.86 1019.92 1019.98 1020.03 1020.08 1020.14 1020.20 1020.27 1020.34 1020.42 1020.50 1020.58 1020.67
1018.11 1018.23 1018.33 1018.42 1018.50 1018.55 1018.58 1018.59 1018.57 1018.54 1018.51 1018.49 1018.48 1018.50 1018.53 1018.58 1018.64 1018.71 1018.78 1018.86 1018.95 1019.06 1019.18 1019.31 1019.44 1019.58 1019.71 1019.83 1019.93 1020.01 1020.06 1020.10 1020.13 1020.16 1020.19 1020.23 1020.28 1020.34 1020.41 1020.50 1020.59 1020.69 1020.79
1018.06 1018.24 1018.40 1018.53 1018.62 1018.68 1018.71 1018.72 1018.71 1018.71 1018.72 1018.74 1018.77 1018.82 1018.87 1018.92 1018.97 1019.02 1019.06 1019.11 1019.18 1019.26 1019.37 1019.49 1019.63 1019.77 1019.90 1020.02 1020.11 1020.17 1020.21 1020.23 1020.24 1020.25 1020.26 1020.28 1020.31 1020.36 1020.43 1020.52 1020.61 1020.72 1020.83
1017.89 1018.17 1018.41 1018.58 1018.71 1018.78 1018.82 1018.84 1018.86 1018.88 1018.92 1018.97 1019.04 1019.12 1019.18 1019.23 1019.27 1019.28 1019.30 1019.32 1019.36 1019.42 1019.52 1019.64 1019.78 1019.93 1020.06 1020.17 1020.26 1020.31 1020.34 1020.35 1020.34 1020.33 1020.32 1020.32 1020.34 1020.37 1020.42 1020.50 1020.59 1020.69 1020.79
1017.66 1018.04 1018.37 1018.62 1018.80 1018.90 1018.96 1018.99 1019.02 1019.06 1019.12 1019.21 1019.30 1019.39 1019.46 1019.50 1019.51 1019.50 1019.48 1019.47 1019.49 1019.54 1019.63 1019.76 1019.90 1020.06 1020.20 1020.32 1020.41 1020.46 1020.49 1020.50 1020.48 1020.46 1020.44 1020.43 1020.42 1020.43 1020.45 1020.50 1020.56 1020.63 1020.71
1017.42 1017.91 1018.34 1018.67 1018.90 1019.04 1019.13 1019.18 1019.22 1019.28 1019.36 1019.45 1019.55 1019.64 1019.70 1019.72 1019.70 1019.66 1019.62 1019.58 1019.59 1019.63 1019.73 1019.86 1020.02 1020.19 1020.35 1020.48 1020.58 1020.65 1020.69 1020.70 1020.70 1020.69 1020.67 1020.65 1020.63 1020.61 1020.59 1020.58 1020.59 1020.61 1020.65
1017.27 1017.85 1018.35 1018.75 1019.04 1019.23 1019.34 1019.41 1019.47 1019.54 1019.63 1019.73 1019.82 1019.90 1019.94 1019.93 1019.89 1019.82 1019.74 1019.70 1019.69 1019.74 1019.84 1019.99 1020.17 1020.35 1020.52 1020.67 1020.78 1020.87 1020.94 1020.98 1021.02 1021.03 1021.03 1021.02 1020.99 1020.94 1020.88 1020.82 1020.76 1020.71 1020.68
1017.27 1017.89 1018.45 1018.90 1019.24 1019.46 1019.61 1019.70 1019.78 1019.86 1019.95 1020.04 1020.13 1020.19 1020.20 1020.16 1020.09 1019.99 1019.90 1019.85 1019.84 1019.89 1020.00 1020.16 1020.34 1020.53 1020.71 1020.87 1021.01 1021.12 1021.22 1021.31 1021.38 1021.45 1021.50 1021.52 1021.50 1021.45 1021.35 1021.24 1021.10 1020.98 1020.86
1017.45 1018.08 1018.66 1019.14 1019.50 1019.75 1019.92 1020.03 1020.13 1020.22 1020.31 1020.41 1020.48 1020.52 1020.50 1020.44 1020.34 1020.23 1020.12 1020.06 1020.05 1020.11 1020.22 1020.38 1020.56 1020.75 1020.92 1021.08 1021.22 1021.35 1021.48 1021.62 1021.76 1021.89 1022.01 1022.09 1022.11 1022.07 1021.97 1021.82 1021.63 1021.43 1021.24
1017.83 1018.43 1018.99 1019.46 1019.82 1020.09 1020.27 1020.40 1020.50 1020.61 1020.71 1020.80 1020.87 1020.89 1020.86 1020.78 1020.66 1020.53 1020.42 1020.35 1020.34 1020.40 1020.51 1020.65 1020.82 1020.98 1021.13 1021.26 1021.39 1021.52 1021.68 1021.86 1022.06 1022.28 1022.48 1022.64 1022.74 1022.75 1022.68 1022.52 1022.30 1022.05 1021.80
1018.38 1018.91 1019.42 1019.85 1020.19 1020.44 1020.62 1020.76 1020.88 1021.00 1021.11 1021.20 1021.27 1021.28 1021.24 1021.15 1021.02 1020.89 1020.77 1020.70 1020.69 1020.74 1020.84 1020.96 1021.09 1021.21 1021.31 1021.40 1021.49 1021.61 1021.77 1021.98 1022.24 1022.53 1022.83 1023.09 1023.28 1023.38 1023.37 1023.25 1023.04 1022.78 1022.48
1019.05 1019.49 1019.92 1020.28 1020.58 1020.80 1020.96 1021.10 1021.22 1021.35 1021.47 1021.58 1021.64 1021.66 1021.62 1021.52 1021.40 1021.26 1021.15 1021.08 1021.07 1021.11 1021.18 1021.28 1021.36 1021.42 1021.46 1021.49 1021.53 1021.60 1021.74 1021.96 1022.26 1022.62 1023.01 1023.37 1023.67 1023.87 1023.95 1023.90 1023.74 1023.50 1023.22
1019.77 1020.10 1020.43 1020.72 1020.94 1021.12 1021.25 1021.38 1021.50 1021.63 1021.76 1021.87 1021.95 1021.97 1021.94 1021.85 1021.73 1021.61 1021.50 1021.44 1021.42 1021.46 1021.51 1021.57 1021.61 1021.62 1021.59 1021.54 1021.51 1021.54 1021.64 1021.84 1022.15 1022.55 1023.00 1023.45 1023.85 1024.16 1024.34 1024.40 1024.32 1024.14 1023.89
1020.47 1020.70 1020.93 1021.12 1021.26 1021.38 1021.47 1021.57 1021.68 1021.80 1021.94 1022.06 1022.15 1022.18 1022.16 1022.08 1021.97 1021.86 1021.76 1021.71 1021.70 1021.73 1021.78 1021.82 1021.83 1021.79 1021.71 1021.60 1021.50 1021.46 1021.50 1021.67 1021.96 1022.36 1022.84 1023.35 1023.83 1024.23 1024.52 1024.68 1024.70 1024.61 1024.43
1021.11 1021.24 1021.36 1021.46 1021.52 1021.56 1021.60 1021.66 1021.75 1021.87 1022.00 1022.12 1022.21 1022.25 1022.24 1022.18 1022.08 1021.98 1021.90 1021.86 1021.86 1021.90 1021.96 1022.00 1022.00 1021.94 1021.83 1021.69 1021.54 1021.43 1021.42 1021.52 1021.76 1022.14 1022.61 1023.14 1023.66 1024.13 1024.51 1024.76 1024.88 1024.88 1024.79
1021.67 1021.70 1021.73 1021.73 1021.71 1021.68 1021.66 1021.68 1021.73 1021.83 1021.94 1022.06 1022.15 1022.19 1022.18 1022.12 1022.03 1021.94 1021.87 1021.85 1021.88 1021.94 1022.02 1022.09 1022.11 1022.07 1021.97 1021.81 1021.64 1021.50 1021.42 1021.47 1021.65 1021.96 1022.39 1022.90 1023.42 1023.92 1024.35 1024.68 1024.88 1024.97 1024.96
Thickness
5686 5689 5691 5693 5695 5697 5698 5699 5700 5701 5702 5702 5703 5703 5704 5704 5704 5704 5705 5705 5706 5707 5707 5708 5708 5708 5708 5708 5707 5707 5706 5706 5705 5705 5704 5704 5703 5702 5702 5701 5701 5700 5700
5683 5685 5687 5690 5691 5693 5694 5695 5696 5697 5698 5698 5699 5700 5700 5700 5700 5701 5701 5702 5703 5703 5704 5704 5705 5705 5704 5704 5704 5703 5703 5702 5702 5701 5701 5700 5700 5699 5699 5698 5698 5697 5697
5679 5681 5683 5685 5687 5688 5689 5690 5691 5692 5693 5694 5695 5695 5696 5696 5697 5697 5697 5698 5699 5699 5700 5700 5700 5701 5701 5700 5700 5700 5700 5699 5698 5698 5698 5697 5697 5696 5696 5695 5695 5694 5694
5674 5676 5678 5680 5682 5683 5684 5685 5686 5687 5688 5689 5690 5691 5691 5692 5692 5693 5693 5694 5694 5695 5695 5696 5696 5697 5697 5697 5696 5696 5696 5695 5695 5695 5695 5694 5694 5693 5693 5692 5692 5691 5691
5669 5670 5672 5674 5675 5677 5678 5679 5680 5681 5683 5684 5685 5685 5686 5687 5687 5688 5689 5689 5690 5690 5691 5692 5692 5692 5692 5693 5692 5692 5692 5692 5691 5691 5691 5691 5691 5690 5690 5689 5688 5688 5687
5662 5664 5666 5667 5669 5671 5672 5673 5674 5675 5677 5678 5679 5680 5681 5682 5682 5683 5684 5684 5685 5686 5687 5687 5688 5688 5688 5688 5688 5688 5688 5688 5688 5688 5687 5687 5687 5687 5687 5686 5685 5684 5684
5654 5657 5659 5660 5662 5664 5665 5667 5668 5669 5670 5671 5673 5674 5675 5676 5677 5678 5679 5679 5680 5681 5682 5682 5683 5683 5684 5684 5684 5684 5684 5684 5684 5684 5684 5684 5684 5684 5683 5682 5682 5681 5680
5647 5649 5651 5653 5655 5657 5658 5660 5661 5663 5664 5665 5666 5668 5669 5670 5671 5672 5673 5674 5675 5676 5677 5678 5678 5679 5679 5679 5680 5680 5680 5680 5680 5680 5680 5680 5680 5680 5680 5679 5678 5677 5676
5639 5641 5643 5645 5646 5648 5651 5652 5654 5655 5657 5658 5659 5661 5662 5664 5665 5666 5667 5668 5670 5670 5671 5672 5673 5674 5674 5674 5675 5675 5675 5676 5676 5676 5676 5676 5676 5676 5676 5675 5674 5673 5672
5631 5632 5634 5636 5637 5639 5641 5643 5645 5647 5649 5650 5652 5653 5655 5656 5657 5659 5660 5662 5663 5664 5665 5666 5667 5668 5669 5669 5669 5670 5671 5671 5671 5671 5672 5672 5672 5672 5672 5671 5670 5670 5669
5621 5622 5624 5626 5628 5629 5631 5633 5636 5638 5640 5642 5644 5645 5647 5649 5650 5652 5653 5655 5656 5658 5659 5660 5661 5662 5663 5663 5664 5665 5666 5666 5666 5667 5667 5668 5668 5668 5668 5667 5667 5666 5665
5612 5613 5614 5616 5617 5619 5621 5622 5625 5628 5630 5633 5634 5637 5639 5640 5642 5644 5646 5648 5649 5651 5652 5653 5654 5655 5656 5657 5658 5659 5660 5660 5661 5662 5662 5663 5663 5664 5663 5663 5662 5662 5661
5602 5603 5605 5607 5608 5609 5611 5613 5615 5618 5621 5624 5626 5628 5630 5632 5633 5635 5638 5640 5641 5643 5645 5646 5647 5649 5650 5651 5652 5652 5653 5654 5656 5656 5657 5658 5659 5659 5659 5659 5658 5658 5657
5592 5594 5596 5597 5599 5600 5601 5603 5605 5608 5611 5613 5616 5619 5621 5623 5624 5626 5629 5631 5634 5635 5637 5639 5640 5642 5643 5644 5646 5647 5647 5648 5649 5651 5652 5652 5653 5654 5654 5654 5654 5654 5653
5583 5585 5586 5586 5589 5591 5592 5594 5596 5598 5600 5603 5606 5609 5611 5613 5615 5617 5619 5622 5625 5627 5629 5631 5633 5635 5636 5637 5639 5640 5641 5641 5643 5644 5646 5647 5648 5649 5649 5650 5650 5650 5649
5573 5575 5576 5578 5579 5581 5583 5584 5586 5588 5591 5593 5596 5598 5601 5604 5605 5607 5610 5613 5616 5619 5621 5623 5626 5628 5629 5630 5631 5633 5634 5635 5636 5638 5639 5641 5642 5643 5644 5644 5645 5645 5645
5564 5565 5567 5568 5569 5571 5573 5575 5576 5578 5581 5583 5586 5588 5591 5594 5596 5598 5601 5604 5607 5610 5613 5615 5618 5620 5621 5623 5624 5626 5627 5629 5630 5631 5633 5634 5635 5637 5638 5639 5639 5640 5640
5553 5555 5556 5558 5560 5562 5564 5565 5567 5569 5571 5573 5576 5578 5582 5585 5587 5590 5592 5594 5598 5601 5604 5607 5610 5612 5613 5614 5616 5618 5620 5622 5623 5624 5626 5627 5629 5630 5631 5632 5633 5634 5635
5544 5545 5546 5548 5550 5552 5554 5555 5556 5558 5560 5563 5565 5569 5572 5575 5578 5581 5583 5585 5588 5592 5596 5599 5601 5604 5605 5606 5608 5610 5612 5614 5616 5618 5619 5620 5622 5624 5625 5626 5627 5628 5629
5533 5535 5536 5538 5540 5541 5543 5545 5546 5548 5550 5552 5555 5558 5562 5565 5568 5571 5574 5576 5579 5583 5587 5591 5593 5595 5597 5599 5600 5601 5604 5606 5608 5610 5612 5613 5615 5617 5618 5619 5620 5621 5623
5521 5523 5525 5527 5529 5531 5532 5534 5536 5538 5540 5542 5545 5548 5552 5555 5558 5561 5564 5567 5570 5574 5577 5581 5585 5586 5588 5590 5591 5592 5595 5598 5601 5603 5605 5606 5608 5610 5611 5612 5614 5615 5616
5510 5512 5513 5515 5517 5519 5522 5523 5525 5527 5529 5532 5535 5537 5541 5544 5548 5551 5554 5558 5561 5564 5568 5572 5576 5578 5579 5582 5584 5585 5587 5590 5593 5596 5597 5599 5601 5602 5604 5605 5607 5608 5610
5497 5499 5502 5504 5506 5507 5510 5512 5512 5514 5517 5521 5524 5528 5530 5534 5537 5541 5544 5548 5551 5556 5560 5563 5567 5571 5572 5573 5577 5579 5582 5585 5585 5588 5590 5592 5594 5595 5597 5598 5600 5602 5603
5485 5488 5489 5492 5494 5496 5498 5500 5501 5503 5507 5510 5514 5518 5521 5524 5528 5532 5535 5539 5543 5547 5551 5555 5559 5562 5565 5566 5568 5572 5575 5579 5578 5580 5582 5585 5586 5588 5590 5591 5593 5595 5596
5474 5475 5477 5480 5482 5485 5487 5488 5490 5492 5496 5499 5503 5507 5510 5514 5518 5522 5526 5530 5534 5538 5542 5546 5550 5553 5557 5559 5561 5562 5565 5569 5571 5573 5575 5576 5578 5580 5582 5584 5585 5587 5589
5462 5464 5465 5468 5471 5474 5476 5478 5479 5481 5485 5488 5492 5496 5500 5504 5509 5513 5517 5521 5526 5529 5533 5537 5541 5544 5548 5551 5553 5555 5557 5560 5563 5565 5567 5568 5570 5572 5574 5576 5577 5579 5581